STARLINK-5728, 55588

Orbit data source: Space-Track

STARLINK-5728, 55588 is a payload satellite owned by SpaceX/Seattle (US) in LEO that was launched on Sun, 12 Feb 2023 UTC via an FALCON 9 launch vehicle from the Air Force Eastern Test Range (AFETR). Payload-class satellites include a variety of spacecraft equipped with specific instruments for various scientific and technological missions. These include communications satellites like Starlink; space stations such as the ISS; scientific satellites like the Hubble; Earth observation satellites from companies like Planet Labs, Umbra, and HawkEye 360; GPS; miniature CubeSats for education and research; and military/defense satellites.

Loading next visibility...
Identifier
55588, 2023-020V
Orbit
LEO
Country
Flag of USUS
Related business
Manufacturer
SpaceX/Seattle
Mission
Operational Commercial Communications
Bus & Motor
STARLINK, Unknown motor
Mass
305 kg wet, ~290 kg dry
Launch date (UTC)
2023-02-12 (4 years ago)
Launch vehicle
FALCON 9
Launch site
Air Force Eastern Test Range (AFETR)
Object type
Payload
Rocket body
Debris
Shape & HBR
Box + 1 Pan, 10.1 m
Radar Cross Section
13.562 m², Large (>1 m²)

Expand to show TLE details & history
Last TLE update: 11 hours ago

TLE from 11 hours ago
0 STARLINK-5728
1 55588U 23020V   26263.95158722  .00000382  00000-0  23428-4 0  9992
2 55588  43.0051 342.6367 0001892 282.0294  78.0345 15.27576992198776
Epoch: 2026-09-20T22:50Z
TLE epoch observation values (Epoch: 2026-09-20T22:50:17.135Z)
Latitude
-0.00007°
Longitude
0.22682°
Altitude
482.565 km
Speed
7.626 km/s
True Right ascension
22h 50m 32s
True Declination
0° 00' 00"
Sunlit
Object was in full shadow at epoch
Visualization orbit readout
Latitude
Unknown
Longitude
Unknown
Altitude
Unknown
Speed
Unknown
Apparent Right ascension
Unknown
Apparent Declination
Unknown
Sunlit
N/A
Visualization observer readout
Local Sidereal Time
03:12:04
Azimuth
Unknown
Elevation
Unknown
Doppler factor
Unknown
Orbital elements
Apogee altitude
486.301 km
Perigee altitude
483.704 km
Semi-major axis
6,863.139 km
Eccentricity
0.00019
Inclination
43.0051°
RAAN
342.6367°
Arg. of periapsis
282.0294°
True anomaly
78.05571°
Mean anomaly
78.0345°
Eccentric anomaly
78.04511°
Mean motion
3.81732 °/min
Orbital period
94.31 mins
BSTAR
0.000023428
Loading maneuver chart data...
Computing Atmospheric mass density...
Loading historical data...
Loading historical data...
Loading historical data...
Loading historical data...
Loading historical data...
Loading historical data...
Loading historical data...

Documentation

Showing up to 5 results
|